Wind_Speed
24 24 26 27 26 26 27 25 21 20 22 21 19 19 20 20 18 17 17 20 22 21 20 19 18 17 17 18 18 17 17 17 17 17 17 17 17 17 16 16 16 15 15 15 14 15 15 16 16 16 16 15 15 15 15 15 15 15 15 15 15 15 15 16 16 17 18 18 19 19 19 19 19 19 18 18 18 18 19 19 19 19 19 19 19
27 28 30 31 29 28 28 26 24 24 25 25 24 22 23 23 21 18 18 19 20 20 20 20 19 18 19 20 20 20 20 20 20 19 19 19 19 18 17 16 16 16 15 15 14 14 14 15 15 15 15 15 15 15 15 16 16 17 17 17 18 18 18 18 19 19 20 21 21 21 22 22 22 22 21 20 20 20 21 21 22 22 22 22 22
33 34 34 34 32 30 29 28 27 28 28 28 27 24 24 25 23 22 21 19 18 19 20 20 20 20 20 21 22 23 23 22 22 21 21 20 20 20 19 18 17 17 16 16 16 16 15 14 15 15 15 16 16 16 16 17 17 17 18 18 19 19 20 21 21 22 23 23 24 24 24 25 25 25 25 24 23 23 23 23 24 24 25 25 26
36 36 36 35 33 31 31 29 29 30 30 30 29 27 26 26 25 24 24 23 21 20 22 22 22 23 23 23 24 24 24 25 25 25 24 23 21 21 21 21 20 19 18 18 18 18 17 17 16 16 17 17 18 19 20 20 20 20 21 21 21 21 21 22 22 22 24 25 26 27 27 27 28 28 28 28 28 27 26 26 26 26 27 27 28
37 35 33 32 32 33 34 32 32 32 32 33 32 31 30 30 31 29 27 26 25 24 25 26 27 27 27 27 27 27 27 28 28 29 28 26 24 24 23 22 22 21 21 21 20 20 20 20 19 19 19 20 20 22 23 24 24 24 24 24 25 25 25 25 24 24 24 25 27 28 29 29 30 31 31 31 31 31 31 31 30 30 29 29 30
38 35 32 30 30 32 34 35 36 36 35 35 35 34 33 34 35 35 33 31 30 28 28 30 30 30 30 31 31 32 33 33 33 33 32 30 28 27 26 25 24 24 23 23 23 23 24 24 23 22 22 22 22 23 25 26 27 27 27 28 28 28 28 28 28 27 26 26 27 29 30 31 31 32 33 34 34 34 34 34 34 34 33 33 32
37 37 35 33 31 31 32 33 34 36 37 36 36 36 36 35 35 35 36 36 34 31 30 32 33 34 34 34 34 36 37 34 31 30 30 31 30 29 28 28 28 27 26 26 26 27 27 28 27 26 25 25 25 26 28 29 29 30 30 30 31 31 31 31 30 30 30 29 29 29 30 32 33 34 35 35 35 35 35 35 35 36 36 35 35
37 37 37 37 35 34 35 35 35 35 35 34 34 36 36 35 34 35 36 36 36 35 35 36 36 36 36 36 35 36 35 33 30 28 29 31 31 31 30 29 29 29 29 29 29 29 29 30 29 29 28 29 29 30 30 30 30 31 31 32 32 33 33 33 33 33 32 32 31 31 31 32 34 35 36 36 36 36 37 36 35 36 37 37 36
41 41 41 41 40 39 39 42 42 39 36 33 33 35 36 36 35 37 37 38 39 40 39 38 38 38 38 38 37 37 37 38 39 37 35 34 32 33 33 33 33 32 31 31 31 30 30 31 31 32 32 33 33 32 32 31 31 31 32 33 34 34 35 35 35 34 33 33 33 33 33 33 34 35 36 37 38 37 38 38 37 37 38 37 37
47 46 46 45 45 44 44 46 47 46 45 44 41 39 40 40 40 41 42 42 42 42 41 40 42 42 41 40 40 41 41 43 44 42 40 38 34 33 33 35 36 36 34 34 34 33 33 33 33 34 34 35 36 35 35 34 34 34 35 36 36 37 36 35 34 34 34 35 35 36 36 36 36 36 37 38 39 38 39 39 39 39 39 39 39
49 50 50 50 50 50 49 49 51 51 52 51 47 43 42 43 43 43 44 43 43 42 42 44 45 45 44 43 44 44 44 46 46 46 45 44 42 38 36 37 38 38 37 37 36 35 34 34 34 35 37 38 38 38 39 38 38 38 37 38 39 40 39 38 38 38 38 38 39 40 40 39 39 39 39 39 39 40 40 40 40 40 40 39 39
47 49 51 52 52 53 53 53 54 55 55 54 52 49 48 48 48 48 47 46 46 46 46 46 46 46 47 47 47 46 47 47 48 48 48 48 48 46 43 43 43 42 41 41 39 38 37 37 39 41 42 42 41 41 42 42 41 41 40 40 41 41 42 43 44 45 45 44 43 43 43 43 42 42 42 42 41 41 41 42 42 41 41 41 40
41 43 46 48 49 50 52 53 53 54 54 55 55 55 55 55 55 55 54 52 51 51 50 50 50 49 50 50 49 48 48 48 48 48 48 48 48 48 47 46 45 44 44 43 43 42 42 43 46 47 46 45 44 44 44 43 42 42 42 42 43 44 45 46 48 49 49 48 47 46 45 45 43 43 44 44 44 44 44 44 44 44 43 43 42
41 41 43 44 45 47 48 48 48 49 50 52 53 54 55 56 57 58 58 57 55 54 53 52 52 52 52 52 52 51 50 49 49 49 49 49 49 48 47 45 45 45 45 44 44 44 44 46 48 48 48 47 46 45 45 45 44 44 44 45 46 47 47 49 51 52 52 51 50 48 47 47 46 46 46 47 47 46 46 46 46 46 45 45 45
44 44 44 44 46 47 47 46 47 48 49 50 50 51 52 53 54 55 56 57 57 56 55 54 54 53 53 53 54 54 54 53 52 51 51 50 50 50 48 47 48 48 47 47 48 47 46 47 48 48 48 48 47 46 46 46 46 46 47 47 48 48 49 50 51 51 51 51 51 50 49 50 50 50 49 49 49 49 49 48 48 48 48 48 47
46 46 46 47 48 50 50 50 51 51 51 51 51 51 51 52 52 52 53 55 56 56 56 56 56 55 55 54 54 55 55 55 55 54 54 53 53 53 52 51 51 50 49 49 50 49 48 49 49 48 48 48 48 48 48 48 48 48 48 48 48 49 49 49 49 49 49 50 50 50 50 51 51 51 51 51 50 50 50 49 48 49 49 50 50
50 50 50 51 52 52 54 55 54 52 52 52 52 52 52 52 52 52 52 53 54 54 55 55 55 55 55 54 54 55 55 55 55 55 56 56 55 55 54 52 51 51 51 50 51 50 50 50 49 48 48 48 48 49 49 49 48 48 48 48 48 48 48 48 48 49 50 51 52 51 51 51 50 50 50 50 50 51 51 50 50 50 50 50 50
52 52 53 53 54 54 55 54 53 52 52 52 53 52 52 52 52 52 52 53 53 53 53 52 52 52 53 53 53 54 54 54 54 53 53 53 53 53 53 53 52 51 50 49 49 49 49 49 48 48 48 48 48 48 48 48 48 48 47 47 47 48 49 50 51 52 52 52 51 50 50 49 49 49 50 51 52 53 52 52 52 52 52 51 51
52 54 56 57 56 55 54 53 51 51 52 53 53 53 53 52 52 53 53 53 53 53 53 52 52 52 52 53 54 54 55 55 54 53 52 52 51 50 50 51 51 49 48 48 48 49 49 48 48 47 47 47 48 47 47 47 47 47 47 47 48 49 50 52 52 53 53 51 50 49 49 49 50 50 51 52 54 54 55 55 55 55 55 54 54
57 59 59 59 57 55 54 52 51 51 51 52 52 52 52 53 53 54 54 54 54 54 54 53 53 54 54 54 55 55 55 55 54 54 53 51 50 48 48 48 48 47 47 48 48 48 47 47 46 46 46 47 47 47 47 48 48 48 48 49 50 51 52 53 53 53 53 51 50 50 51 52 53 52 53 53 54 55 56 56 56 57 57 57 57
62 62 60 59 56 52 51 50 50 50 50 50 50 50 50 51 52 53 53 54 53 52 52 52 52 52 53 53 53 54 53 53 53 52 51 50 49 48 47 46 46 46 47 47 48 47 46 46 46 46 46 47 48 48 48 49 49 50 51 51 52 52 53 53 53 53 52 52 52 52 53 53 53 52 52 52 52 53 54 55 56 57 58 59 59
64 63 61 58 55 52 50 49 49 49 49 49 48 48 48 48 48 49 50 50 50 49 50 49 49 50 50 51 51 51 50 49 49 49 49 48 47 46 46 46 46 46 46 47 48 48 47 47 47 47 47 48 48 49 49 50 51 51 52 52 53 53 53 53 53 52 52 52 52 53 53 53 52 52 51 51 51 51 52 53 55 57 58 59 60
65 63 61 59 56 54 52 50 49 48 48 48 48 47 47 46 46 46 47 47 47 47 48 48 48 49 49 49 49 48 47 46 46 46 46 45 45 44 45 45 45 45 46 47 47 48 47 46 46 47 47 48 49 49 50 50 51 51 51 52 52 52 52 53 53 53 53 53 53 52 52 52 52 52 52 52 52 53 54 55 56 58 60 61 61
64 62 61 59 58 56 54 51 49 48 48 48 48 47 46 45 45 45 44 44 44 46 46 47 47 47 47 47 47 46 45 44 43 43 44 44 44 44 44 44 44 44 45 45 46 46 46 46 46 46 47 48 48 48 48 48 48 49 49 49 50 51 51 52 52 52 53 53 53 53 52 52 52 53 54 55 55 57 58 59 60 61 62 63 64
64 62 61 60 59 57 55 52 51 51 50 49 47 45 45 45 45 44 44 43 43 44 45 46 46 45 45 45 45 44 44 42 41 41 42 42 42 42 43 43 43 43 43 44 44 45 45 45 45 45 46 46 45 45 45 45 46 46 47 48 49 50 50 51 51 51 51 52 52 52 52 52 53 54 56 57 59 61 62 63 63 63 63 63 64
64 63 61 60 59 58 56 54 53 53 51 48 46 44 44 44 44 44 44 43 41 42 44 45 44 44 43 43 43 43 42 40 38 39 39 40 40 40 41 42 42 42 42 43 43 43 43 44 44 44 44 43 44 44 44 45 45 46 47 48 49 49 49 49 50 50 50 50 51 51 52 53 55 57 58 60 62 63 64 63 62 61 60 59 59
62 61 61 60 60 59 58 56 54 52 49 47 45 44 44 44 43 43 43 42 41 41 42 43 42 41 41 41 41 41 40 38 38 38 38 38 39 39 39 40 40 40 41 41 41 41 42 43 43 43 43 44 45 46 46 46 47 47 47 48 48 48 48 49 49 49 49 50 51 52 54 56 58 60 61 62 63 62 61 60 59 58 58 58 56
60 60 60 59 59 58 57 54 52 50 48 46 45 45 45 44 43 42 42 42 41 41 41 42 41 40 41 41 40 40 39 39 39 39 38 38 38 38 39 39 39 40 40 40 40 41 42 42 43 43 44 44 45 45 45 45 45 45 46 46 46 47 48 48 49 50 51 53 55 57 58 60 61 61 61 61 61 60 60 60 59 59 58 58 56
58 59 59 58 57 56 54 52 50 48 46 45 46 46 45 43 42 42 42 42 41 41 42 42 41 41 41 41 40 40 40 40 39 39 39 38 38 39 39 39 39 40 39 39 39 40 40 40 40 40 39 39 38 39 39 40 41 42 43 44 45 47 48 50 51 53 55 56 58 59 59 60 60 60 60 60 60 60 60 60 59 58 58 58 56
59 58 58 57 56 54 53 51 50 48 46 45 46 47 45 42 42 43 43 42 42 42 42 41 41 41 41 41 40 40 40 40 39 39 39 39 39 39 39 39 39 38 38 38 38 38 37 35 34 33 32 32 33 34 35 37 39 41 43 45 47 48 50 52 54 56 57 58 58 59 59 59 59 59 59 59 59 59 59 59 58 58 57 56 56
57 57 56 56 55 54 52 51 51 49 47 46 46 46 45 44 43 43 43 43 42 42 41 41 41 41 41 41 41 41 41 40 40 40 39 38 38 38 38 37 37 36 35 34 32 30 29 27 27 27 28 29 31 33 35 37 39 42 44 46 48 50 52 54 56 57 58 59 59 59 58 57 56 55 55 55 55 56 56 56 57 56 56 55 54
56 56 56 56 55 54 53 53 51 49 47 46 46 45 45 45 44 44 44 43 42 41 41 42 42 41 41 42 42 41 41 40 40 39 39 38 37 37 36 34 33 31 28 25 23 22 22 23 24 26 27 29 31 34 36 38 40 43 45 47 49 51 53 55 56 56 56 55 54 53 52 51 50 50 50 50 50 51 51 51 52 52 52 52 51
56 55 55 55 55 55 54 54 53 50 47 46 46 45 46 46 45 45 44 43 42 43 42 42 42 41 41 41 41 41 40 39 39 38 37 35 34 33 30 28 24 20 18 17 17 18 20 21 23 25 27 29 32 34 36 38 41 43 45 47 48 50 51 52 52 51 50 49 49 48 48 47 45 44 43 43 42 42 42 42 43 44 45 45 45
57 56 55 55 55 54 54 55 53 51 48 47 47 46 46 46 46 45 44 43 42 42 42 41 41 41 40 40 40 39 38 36 34 32 31 29 27 24 20 16 14 13 14 15 16 17 19 21 23 25 27 29 31 33 35 37 40 41 43 45 47 48 49 49 49 49 48 48 46 44 42 38 36 34 33 32 32 32 32 33 34 35 36 37 38
56 55 55 55 55 55 54 54 53 52 50 49 48 47 46 46 45 43 42 41 40 39 39 39 39 39 38 37 35 33 31 28 26 24 23 21 18 14 11 10 11 12 13 14 15 16 18 20 22 23 26 28 30 32 34 36 38 40 42 44 46 47 47 46 46 45 44 42 38 34 30 27 25 25 24 23 23 23 23 24 25 26 27 28 30
50 51 52 53 53 53 53 52 52 51 48 47 46 45 44 43 41 39 37 36 35 35 35 35 34 33 32 30 27 25 22 19 18 17 16 14 12 10 10 10 11 12 11 12 13 14 15 17 19 22 24 27 29 31 33 35 36 39 41 43 43 43 41 39 37 35 33 29 25 22 21 20 19 19 19 18 18 18 18 18 19 19 19 20 21
41 44 45 46 48 49 49 49 48 46 43 42 41 40 38 37 35 34 33 33 32 31 30 28 26 24 22 20 18 17 16 16 16 15 13 12 11 11 11 11 10 10 9 9 9 10 12 15 18 21 23 26 28 29 31 33 35 37 39 40 39 37 33 29 27 25 23 20 18 18 18 17 16 16 16 16 16 17 17 17 17 18 18 18 18
29 32 35 38 40 40 39 39 38 37 35 34 33 31 30 29 29 28 28 27 24 22 20 17 16 15 15 15 15 16 16 17 17 15 14 13 13 12 11 10 9 8 6 6 6 9 12 15 18 21 23 25 27 28 30 33 36 37 37 36 34 29 25 22 21 21 19 18 17 16 16 15 14 14 14 15 16 17 18 18 19 19 19 20 20
18 21 24 26 27 28 28 27 27 26 25 25 24 23 22 22 22 21 20 18 16 14 14 13 13 13 14 15 17 16 16 16 16 15 14 14 14 12 11 9 7 6 4 4 6 9 13 16 19 22 25 26 27 29 31 34 36 36 34 30 27 23 19 17 18 19 18 15 13 13 13 13 13 14 15 16 18 20 21 20 20 19 19 19 20
13 14 15 17 18 20 22 21 20 20 20 19 19 19 18 18 17 17 16 15 14 13 12 12 12 12 13 15 15 15 14 15 16 16 16 15 13 11 10 8 6 4 3 4 6 10 13 16 20 23 26 28 28 29 32 35 36 34 29 24 20 18 15 14 16 16 14 11 10 11 11 12 14 16 18 20 20 20 19 17 16 15 15 15 16
5 8 11 14 16 18 19 19 18 18 19 18 18 17 16 15 16 16 16 15 14 12 12 12 12 12 13 13 13 14 15 17 17 17 16 14 11 10 8 7 6 4 3 4 7 10 14 17 20 24 27 29 29 30 33 36 35 30 23 19 17 15 14 13 14 12 10 9 9 11 12 15 17 20 21 20 19 17 15 14 14 14 14 14 14
12 12 13 14 15 17 19 19 18 19 20 18 17 16 15 15 16 16 16 14 13 12 12 12 12 11 12 13 15 17 18 18 17 16 13 11 9 8 8 8 7 5 3 4 7 11 14 18 21 24 27 29 30 31 34 37 36 28 19 16 16 14 13 12 12 9 8 9 11 13 15 18 20 20 20 19 17 16 16 16 15 14 13 12 12
12 12 11 11 11 13 16 16 17 19 19 17 16 16 16 15 15 15 14 13 13 13 12 11 11 12 14 16 18 19 19 18 15 13 11 10 9 8 9 9 7 5 4 5 7 10 13 17 21 24 27 30 31 32 34 37 38 31 20 16 16 14 12 11 10 9 8 10 12 14 16 18 18 19 20 19 18 17 17 17 16 14 11 9 9
12 12 13 12 12 14 15 17 18 19 18 16 15 15 15 14 14 14 14 14 14 13 11 11 13 16 18 19 20 19 17 15 13 12 10 10 10 10 10 9 8 7 6 6 7 10 13 17 20 23 27 30 32 33 34 37 40 36 26 18 16 15 12 9 9 9 9 10 12 14 16 16 17 18 19 18 17 18 19 18 15 11 8 6 5
13 13 13 13 14 16 17 16 17 17 15 14 13 14 14 14 14 15 15 15 13 11 12 14 17 19 20 20 18 16 14 13 12 11 11 10 11 11 11 10 9 8 7 6 8 10 13 16 19 22 26 29 32 34 35 37 40 39 31 21 15 14 12 9 8 8 8 9 12 14 14 13 16 18 17 15 16 19 20 18 14 10 6 5 4
14 13 13 12 14 15 15 15 16 16 14 13 13 13 13 14 14 15 14 13 11 11 14 17 19 20 19 17 16 15 14 13 12 11 11 11 11 11 11 11 10 9 8 7 9 10 13 15 18 21 25 29 31 34 36 37 38 40 36 27 18 14 12 9 8 8 8 9 12 12 11 11 15 17 15 13 14 17 18 17 13 10 9 8 7
14 13 12 12 13 13 14 14 14 14 13 13 13 12 12 12 12 12 11 10 11 14 18 19 19 18 16 15 14 13 12 12 11 11 11 11 11 11 12 12 11 10 9 8 9 11 12 15 18 20 24 27 30 32 35 36 36 38 38 33 25 17 13 10 9 8 8 11 12 11 9 10 14 15 13 11 12 13 14 13 11 10 10 10 9
12 12 11 10 10 11 11 11 11 11 11 11 10 9 9 9 9 9 9 12 15 19 20 19 17 16 14 13 12 12 12 12 11 11 11 11 11 12 12 12 11 10 9 9 10 11 13 15 17 19 22 25 28 31 33 35 35 36 38 37 30 22 15 10 9 9 10 12 12 8 7 10 14 13 10 10 10 10 9 9 9 9 10 10 10
9 9 9 8 7 7 7 8 8 8 8 7 7 7 7 7 7 9 12 16 19 20 18 17 15 14 13 13 12 12 12 12 11 11 11 11 12 12 13 13 12 11 10 10 10 11 13 15 16 18 20 22 25 28 31 32 34 34 35 36 34 27 18 12 9 9 10 11 9 6 6 10 12 10 9 9 10 9 7 6 7 8 9 8 8
6 6 7 7 6 6 5 6 6 7 7 7 8 8 8 8 9 12 15 18 19 18 16 15 14 13 13 13 13 13 13 12 12 12 12 12 12 13 13 13 12 11 11 10 11 12 13 14 16 18 19 21 23 26 28 30 32 33 33 34 35 32 26 18 12 10 10 10 7 6 7 9 9 8 8 9 10 10 9 7 6 7 7 7 7
7 7 7 7 8 8 8 8 8 8 8 9 9 9 9 10 12 15 17 17 16 16 15 14 13 13 13 13 13 13 13 13 13 13 13 13 13 14 14 14 13 13 12 11 11 12 13 14 16 17 19 20 22 24 26 28 30 31 32 32 33 34 32 26 18 12 10 9 8 7 7 8 7 6 6 8 8 9 9 9 8 7 6 6 7
Wind_Direction
279 274 271 268 266 266 265 264 264 267 269 269 271 272 271 274 278 281 284 290 292 288 283 280 280 280 277 276 274 271 270 271 270 270 272 276 278 280 280 278 274 270 267 266 266 266 266 266 267 270 273 275 275 276 276 276 274 273 273 273 274 273 272 271 271 269 267 267 268 267 264 262 259 257 255 252 248 248 250 252 253 252 250 248 246
273 273 273 270 268 267 267 264 264 266 266 265 267 268 270 275 279 278 279 285 288 288 287 285 284 284 284 282 280 278 278 278 275 272 271 272 273 272 273 274 274 271 266 264 261 260 263 266 266 268 272 276 280 281 282 284 284 283 280 278 277 276 275 273 273 272 270 269 269 269 269 267 265 263 260 257 253 251 250 250 251 251 251 250 249
273 273 272 271 271 270 267 265 265 266 263 262 264 266 271 276 278 277 278 279 279 280 279 279 282 285 286 285 283 283 285 284 280 276 273 273 273 271 269 267 269 270 268 265 263 259 258 262 266 269 272 277 281 283 284 284 283 283 283 282 281 279 278 277 275 275 274 272 270 269 269 269 268 267 265 263 259 256 253 252 251 250 251 251 251
273 273 271 269 268 267 266 266 265 266 265 264 265 268 274 278 278 277 277 275 275 274 271 272 278 282 282 283 281 280 281 280 278 276 274 272 271 270 268 265 262 265 267 267 267 266 265 265 268 273 277 280 283 286 287 287 286 285 284 284 283 282 280 278 277 276 276 275 273 270 269 268 268 268 267 266 265 262 260 258 256 254 252 251 251
270 272 273 270 265 264 266 266 264 265 265 265 265 268 272 274 274 275 276 275 275 273 269 269 274 276 276 277 278 276 275 277 278 278 275 272 270 269 270 266 262 260 261 263 265 268 271 272 273 277 281 284 287 288 289 289 289 289 287 286 285 284 283 281 279 277 276 276 276 274 271 269 268 267 266 266 266 266 264 263 262 261 259 256 253
267 269 271 271 268 266 266 263 261 262 263 262 263 265 267 268 268 270 273 275 274 272 269 269 272 274 272 270 271 272 272 274 277 276 274 272 271 271 269 267 264 260 258 259 263 267 271 273 275 278 279 281 284 286 287 287 287 287 287 286 285 284 283 282 281 279 277 275 275 275 275 272 270 268 267 265 265 265 265 265 265 264 264 263 260
267 267 267 269 269 267 264 262 262 263 261 260 261 262 263 264 263 267 272 274 273 271 271 272 272 274 273 271 272 272 269 269 274 274 270 268 268 269 267 265 264 262 260 260 262 265 269 272 274 275 275 277 280 284 285 286 286 285 285 285 285 284 284 283 282 281 280 278 276 274 275 274 273 271 269 268 266 264 264 264 264 265 264 263 263
266 266 265 265 265 266 265 264 267 269 264 260 260 261 262 263 263 266 269 269 270 271 274 274 273 274 277 276 276 273 268 269 274 275 273 272 269 265 264 264 263 263 262 262 264 266 267 269 271 273 275 278 281 285 286 286 285 285 284 284 284 284 283 282 281 281 280 280 279 277 277 276 275 274 272 271 269 267 266 264 263 264 263 262 262
265 265 264 264 263 264 264 264 267 269 265 264 267 267 266 266 267 267 267 267 269 271 273 273 273 275 278 278 278 276 274 275 278 277 277 279 274 265 262 263 264 265 264 262 264 265 267 269 272 274 278 282 283 285 288 287 285 285 286 286 286 286 284 282 280 278 279 279 279 279 278 278 277 276 275 273 271 270 268 267 265 264 264 263 263
263 263 264 264 263 263 264 265 267 268 266 268 273 273 270 269 269 268 268 268 269 270 272 273 274 276 277 277 279 280 279 279 280 279 279 280 278 272 267 265 266 265 264 262 262 264 267 270 273 276 279 281 283 285 286 285 284 284 286 287 287 286 285 282 279 278 278 279 280 280 279 278 278 277 276 275 274 272 270 268 266 265 264 264 264
260 261 262 263 264 264 266 266 267 267 268 271 273 272 269 268 267 267 267 267 267 268 269 270 272 273 273 275 277 278 277 278 280 280 280 280 280 278 274 273 271 267 265 264 263 264 267 270 273 276 277 279 281 283 284 283 283 283 284 285 285 284 283 281 280 279 280 280 281 281 281 279 278 277 276 275 274 273 271 269 267 265 264 263 263
261 259 260 262 263 264 265 266 267 267 268 270 270 269 267 266 265 266 267 266 265 267 268 267 268 270 271 273 274 275 276 278 279 280 281 282 283 282 279 278 276 273 271 270 268 268 270 273 275 277 279 280 282 283 283 283 283 283 283 283 282 282 282 282 281 282 282 282 282 282 281 279 278 277 275 274 273 273 272 271 270 267 265 263 262
263 261 261 262 264 265 266 267 268 268 268 268 267 267 266 265 265 266 267 266 265 265 265 265 265 267 269 270 272 272 273 275 277 280 282 283 283 282 280 278 277 276 275 274 272 271 273 275 276 278 280 282 283 283 283 283 283 283 283 282 282 282 283 283 284 284 284 284 283 283 282 280 278 276 275 273 272 272 271 271 270 270 268 266 264
264 264 265 266 267 267 267 267 269 269 269 269 268 267 266 265 265 266 266 266 266 265 265 265 265 267 269 271 272 272 272 273 274 276 279 279 279 278 278 278 276 276 275 275 273 273 273 274 275 277 279 280 281 282 283 283 282 282 281 281 282 282 283 283 283 283 283 283 282 281 281 280 279 277 276 275 273 272 271 270 269 269 269 268 267
264 265 266 267 268 267 267 269 272 271 269 268 268 267 267 266 266 266 266 266 266 265 265 266 268 270 272 274 274 274 275 276 276 276 276 276 276 276 276 276 276 276 277 277 276 275 275 275 276 277 279 280 281 281 282 282 283 282 281 281 280 281 281 280 279 279 279 279 279 278 278 278 278 278 278 276 275 274 272 271 269 268 267 266 267
262 262 263 264 266 266 267 270 274 272 269 266 266 265 266 266 266 266 266 266 266 267 267 268 270 271 273 274 275 276 277 277 276 276 276 276 276 276 276 276 276 277 278 278 278 279 278 278 278 279 279 281 282 282 282 283 282 281 280 279 279 279 279 277 275 274 274 274 275 275 275 275 276 276 275 275 275 275 274 273 271 268 266 265 264
261 261 261 262 263 265 266 269 271 270 267 266 265 264 264 265 265 265 265 266 266 267 268 269 270 271 272 273 274 274 275 276 276 276 276 276 277 277 277 277 276 276 276 277 277 278 278 278 278 278 279 280 281 282 282 282 281 280 279 279 280 279 277 275 274 273 273 273 273 273 273 272 271 271 271 271 272 272 272 273 272 270 269 266 264
262 264 266 267 268 267 267 267 266 265 263 263 264 264 264 265 265 265 265 266 266 266 267 268 269 270 271 272 273 273 274 275 276 276 276 276 277 277 278 278 277 277 276 276 275 275 275 276 277 277 278 279 279 279 279 279 279 279 280 280 280 279 277 276 275 275 275 274 274 273 271 268 267 267 268 269 270 270 270 270 270 270 270 269 267
267 269 272 273 273 270 268 267 264 261 260 260 261 262 263 264 265 265 265 266 266 266 266 267 268 270 271 272 273 274 274 275 276 276 276 276 276 276 276 276 277 276 275 275 274 274 275 276 277 277 277 277 277 277 277 277 278 279 279 279 279 278 277 276 276 275 275 275 274 271 268 267 267 268 268 268 269 268 268 268 268 268 268 268 267
272 274 274 275 274 271 269 267 264 261 260 260 260 261 262 263 264 265 265 266 266 267 268 268 269 270 271 273 273 274 275 276 276 276 276 275 275 275 274 274 275 274 274 274 274 274 275 276 276 276 276 276 276 276 277 277 278 279 279 279 278 277 276 276 276 275 275 274 273 271 269 269 270 269 269 268 267 267 267 267 267 266 266 265 265
273 274 274 274 273 270 268 266 263 262 262 261 261 261 261 262 264 265 267 267 268 269 269 270 270 271 272 273 274 275 275 275 275 275 275 274 274 273 273 273 273 274 274 274 274 274 274 274 274 274 275 275 275 276 277 278 278 278 278 277 277 276 276 275 275 274 274 273 272 271 271 271 270 270 269 267 266 266 266 266 266 266 265 265 264
270 271 271 271 270 267 266 265 264 263 263 263 262 261 261 260 262 264 266 268 269 270 270 271 272 272 273 274 275 275 275 275 274 274 273 272 272 271 271 272 272 272 273 274 274 274 274 274 274 275 275 275 276 277 278 278 278 277 277 277 276 276 275 275 274 274 273 272 272 271 271 271 270 270 269 267 266 266 266 266 267 267 266 266 265
267 268 267 267 266 265 265 265 265 265 265 264 263 262 262 261 261 262 263 265 267 269 270 270 271 272 273 274 276 277 277 277 275 274 272 271 270 270 270 271 271 271 272 273 274 275 275 275 275 276 276 277 277 278 278 278 277 277 277 276 276 276 276 275 275 274 273 272 272 271 271 270 270 268 266 266 267 268 269 270 270 270 269 268 267
264 265 264 264 264 264 264 263 263 264 264 263 263 264 264 264 264 264 264 265 266 267 268 269 269 270 272 274 275 276 277 277 276 274 272 271 271 271 272 272 272 272 272 273 274 275 276 276 277 277 278 278 278 279 279 279 278 278 277 276 276 276 276 275 275 275 275 274 274 273 272 271 269 268 267 267 269 271 273 274 275 275 273 271 269
263 263 263 263 263 264 264 264 263 263 262 262 263 265 265 265 266 266 265 264 265 267 268 269 269 270 271 272 272 273 274 275 276 275 273 272 272 273 273 273 274 274 274 274 275 275 276 277 277 277 277 277 278 278 278 278 278 277 277 277 277 277 277 277 276 276 275 275 274 273 272 271 270 270 270 270 272 274 275 277 277 276 275 273 271
262 263 264 264 264 263 263 263 263 262 263 264 264 263 264 264 265 266 265 265 265 267 269 269 270 270 271 271 272 272 273 273 274 274 274 273 273 273 273 273 274 274 274 274 274 275 276 276 277 277 277 278 277 277 277 277 277 277 277 278 279 279 279 279 278 278 277 277 276 275 274 273 273 273 274 275 277 278 278 278 277 276 274 273 271
262 263 264 264 264 263 263 263 263 263 264 265 264 264 263 264 264 265 267 267 267 267 268 269 269 270 270 271 272 273 273 274 274 274 274 273 273 273 273 273 274 274 274 274 274 275 275 276 277 277 277 277 276 276 277 278 279 279 280 281 282 282 281 281 281 281 281 281 280 279 279 278 278 278 279 279 280 280 279 278 276 275 274 272 271
263 263 262 262 263 263 263 262 263 264 264 264 264 264 264 265 265 266 267 267 266 266 266 267 268 268 269 271 272 273 273 274 274 274 273 273 273 273 273 273 273 273 273 274 275 276 276 277 277 276 276 276 276 277 279 280 281 282 282 283 283 283 283 283 283 284 284 284 283 282 282 281 281 281 281 280 280 279 279 278 277 275 274 273 271
260 259 259 260 260 261 261 261 261 262 261 262 263 264 264 265 267 268 267 266 266 265 265 266 267 268 269 271 271 272 272 273 273 273 273 273 272 272 272 272 273 274 275 276 276 277 277 277 277 278 279 280 281 282 282 283 283 283 283 282 282 283 283 284 284 284 284 284 283 282 282 282 282 282 281 281 280 279 278 277 276 274 273 272 271
256 256 257 258 259 259 260 260 260 260 260 260 261 263 264 265 266 267 267 267 266 266 266 267 267 267 268 269 270 270 271 271 271 271 271 271 271 271 271 272 273 275 276 276 277 277 278 279 281 283 284 285 285 284 283 282 282 282 282 282 283 283 284 284 284 284 284 284 284 284 284 284 283 283 282 281 280 278 276 275 273 272 271 270 269
255 256 257 258 259 259 259 259 259 259 259 259 260 262 264 264 263 264 265 265 265 266 267 267 267 267 268 269 269 269 269 270 270 270 269 269 269 270 271 272 273 275 276 277 278 280 282 284 285 285 284 283 282 281 281 281 281 282 282 283 284 285 285 285 285 285 285 286 286 286 286 285 284 283 282 280 278 276 274 272 271 269 268 267 266
255 255 255 256 258 259 259 260 259 258 258 258 259 260 261 262 262 263 263 264 265 266 266 266 266 266 267 267 268 268 269 269 268 268 267 267 267 268 269 271 272 274 276 278 279 281 282 282 282 281 281 281 281 281 282 283 284 285 286 287 287 288 288 287 287 287 288 288 288 287 287 287 286 285 284 281 279 277 274 272 270 268 266 264 262
256 255 255 255 255 256 257 259 259 259 258 257 258 258 259 260 262 263 263 264 265 266 266 266 266 266 266 267 268 268 268 267 266 264 264 264 264 265 267 268 270 272 275 277 277 277 277 278 279 280 282 283 284 286 288 290 291 292 292 292 291 291 291 291 292 292 291 291 290 290 290 290 289 287 285 283 281 280 277 275 272 270 266 263 260
257 256 255 255 255 255 255 256 258 258 258 258 258 258 259 260 261 262 263 264 264 265 265 265 265 265 265 266 266 265 264 264 263 261 261 261 260 260 260 262 265 268 269 271 273 275 278 281 284 287 289 292 295 297 298 298 297 296 296 295 295 295 295 295 295 295 293 293 293 293 292 290 288 286 286 286 285 284 282 279 276 273 269 265 261
256 255 255 255 255 254 255 255 256 256 256 257 257 258 258 259 259 260 261 262 262 262 262 262 262 263 263 263 263 262 262 260 257 255 254 251 247 244 247 253 258 260 262 267 274 281 287 291 295 299 302 304 303 302 301 300 299 298 297 296 296 297 297 297 295 294 293 294 294 293 291 288 287 289 291 292 292 291 290 287 283 278 273 268 264
252 252 251 251 251 252 252 252 252 253 253 254 254 255 256 257 258 258 257 256 255 254 255 257 259 260 260 260 260 259 254 246 241 238 233 226 225 232 241 245 247 252 262 274 284 292 300 307 311 312 310 307 305 304 303 303 303 302 301 300 300 301 301 300 297 295 295 295 295 294 293 293 295 298 301 302 303 304 303 301 297 292 285 277 271
248 248 248 247 247 247 247 247 248 248 248 249 250 251 252 253 253 251 249 248 247 247 250 254 256 255 254 252 248 240 228 218 213 209 206 211 224 233 231 231 238 252 267 281 294 309 322 327 325 321 316 312 310 309 309 310 311 310 308 307 307 308 307 304 300 298 299 300 301 302 302 303 302 303 304 305 306 306 305 304 302 298 294 289 283
248 246 244 243 243 243 242 243 243 242 241 241 242 242 243 244 242 240 240 243 243 242 242 241 239 235 232 225 216 208 204 203 201 199 204 216 222 217 215 223 238 251 264 284 314 334 339 338 335 331 326 322 319 318 319 321 320 318 316 314 313 313 311 307 302 301 303 306 305 303 302 302 302 302 303 306 307 306 303 299 295 291 287 284 280
244 241 239 237 235 233 230 229 229 228 226 225 225 225 225 226 227 229 232 232 225 218 216 216 217 216 212 204 198 197 199 203 205 207 209 209 206 204 212 224 230 234 254 303 336 344 342 340 339 337 335 332 329 328 329 330 328 324 320 317 315 315 313 307 303 304 308 310 306 300 299 301 303 304 306 309 309 306 302 298 296 294 290 284 279
238 231 223 216 212 208 205 202 202 201 199 199 202 206 208 210 215 218 215 206 199 198 201 202 202 201 196 193 194 199 206 211 212 207 199 193 195 203 210 211 210 222 266 323 341 343 340 338 339 340 340 338 336 337 338 339 335 329 323 317 314 316 317 313 310 311 314 312 305 302 303 306 308 309 311 313 312 308 303 300 300 300 298 293 287
182 180 179 178 178 177 176 176 178 180 179 181 187 194 199 204 208 205 199 195 196 197 196 193 192 192 191 196 208 214 213 208 200 190 184 188 196 201 200 201 214 236 275 326 337 339 339 339 339 341 343 343 344 345 347 347 343 335 325 319 318 318 319 320 317 315 316 315 309 310 314 315 314 314 317 320 320 316 310 307 306 304 300 295 289
121 129 135 142 149 153 155 160 168 173 173 176 184 191 193 196 198 197 196 198 198 194 190 190 193 197 204 214 218 210 198 189 182 180 184 193 197 196 203 216 226 234 262 317 330 336 341 340 340 342 345 348 350 353 354 353 351 344 332 325 325 321 317 321 321 315 313 316 316 318 320 319 319 323 330 334 335 332 328 323 318 312 306 297 289
124 129 135 143 153 158 160 166 176 180 179 179 182 184 185 187 188 189 191 193 191 188 188 194 204 212 215 211 201 188 179 176 178 184 193 199 201 207 218 223 224 228 254 299 323 335 341 342 341 343 346 351 355 358 358 358 359 356 346 335 333 329 321 319 321 317 314 316 317 320 322 323 328 338 344 346 345 344 342 337 330 323 315 305 295
138 152 163 171 174 172 173 178 182 182 179 176 176 179 181 180 178 179 183 186 187 188 197 211 217 212 202 190 179 173 172 177 185 192 201 207 212 218 221 222 225 235 255 291 319 332 340 342 342 345 348 353 358 1 2 3 4 3 356 346 341 339 330 318 313 311 314 320 322 324 326 331 339 347 350 351 351 352 352 350 346 339 330 320 311
123 139 151 157 157 159 161 163 163 164 166 168 170 175 177 175 176 182 187 189 191 199 213 217 208 195 183 175 171 173 179 186 194 202 210 214 217 222 224 226 232 242 258 288 313 328 339 343 345 347 350 354 359 3 5 6 7 5 1 354 349 345 340 327 315 316 321 327 329 327 325 329 339 348 355 358 357 357 358 359 359 360 3 5 1
102 111 118 125 134 141 147 149 152 156 159 159 159 163 168 173 180 188 193 196 204 211 209 199 187 178 174 174 177 182 190 199 206 212 215 216 220 227 229 231 239 250 263 285 310 326 338 343 346 349 352 356 359 4 7 9 9 7 4 0 355 349 343 334 327 331 334 329 327 325 319 323 338 351 359 360 357 359 2 4 6 17 28 29 29
98 105 110 117 126 135 143 150 154 155 154 154 156 163 171 177 184 190 198 206 208 199 189 180 175 174 178 184 188 196 206 214 219 221 223 224 229 234 236 239 248 256 265 285 309 323 334 342 346 350 354 355 358 3 8 10 8 8 7 4 358 351 342 330 323 324 324 321 321 320 318 328 341 352 357 355 357 4 9 10 16 32 43 47 50
99 103 108 116 125 134 143 150 154 155 156 160 167 175 181 186 193 203 209 204 192 182 176 174 176 181 188 196 204 214 222 226 228 230 231 234 238 242 244 248 253 259 270 288 305 319 330 339 344 350 354 355 356 2 8 10 8 8 9 7 2 354 342 326 313 310 317 321 320 315 318 330 338 347 355 359 2 8 14 20 29 38 46 55 63
108 111 114 117 121 127 134 142 150 157 165 175 188 200 209 215 220 215 201 188 180 175 174 178 183 191 201 211 220 228 233 236 237 237 239 242 245 247 251 255 259 264 274 289 302 315 326 334 340 346 351 353 355 0 5 8 9 10 10 8 5 1 352 335 311 303 314 322 320 312 318 328 336 349 7 15 14 12 13 23 38 43 45 51 62
132 136 139 142 145 150 158 165 172 181 192 202 214 226 233 230 215 198 187 180 176 176 179 185 193 203 214 223 231 238 242 244 245 246 247 248 249 250 254 260 264 269 277 288 300 311 320 328 335 341 346 350 355 359 1 4 8 11 11 9 8 6 1 351 330 312 313 317 309 299 313 325 336 359 24 32 30 25 22 24 36 48 55 60 63
150 155 160 163 166 170 175 180 185 193 201 208 216 221 220 208 195 186 181 179 180 183 188 195 206 216 225 234 242 247 250 251 253 254 253 253 254 255 257 261 265 270 276 285 295 305 315 321 328 334 340 347 352 356 356 359 4 8 10 10 10 9 6 0 348 328 314 309 297 287 301 320 332 359 32 42 38 32 31 32 37 45 61 77 82
Height
5722 5723 5723 5724 5725 5726 5727 5728 5729 5730 5731 5732 5733 5734 5733 5733 5735 5736 5737 5737 5736 5736 5736 5737 5737 5737 5737 5737 5737 5737 5737 5737 5737 5737 5737 5738 5738 5739 5739 5740 5740 5741 5741 5741 5741 5741 5741 5741 5741 5741 5741 5741 5741 5742 5742 5742 5742 5743 5743 5743 5744 5744 5745 5745 5745 5745 5745 5745 5745 5745 5746 5746 5746 5746 5747 5747 5748 5748 5748 5748 5748 5748 5749 5749 5749
5721 5721 5721 5721 5723 5724 5724 5725 5726 5727 5727 5728 5730 5731 5731 5731 5732 5734 5734 5735 5735 5734 5734 5735 5735 5735 5735 5735 5735 5735 5735 5735 5735 5735 5735 5736 5736 5737 5737 5737 5738 5738 5739 5739 5739 5738 5738 5738 5739 5739 5739 5739 5739 5739 5740 5740 5740 5740 5741 5741 5741 5741 5742 5742 5743 5743 5742 5743 5743 5742 5743 5743 5743 5743 5744 5744 5745 5745 5745 5745 5745 5746 5746 5746 5747
5718 5719 5719 5719 5720 5721 5722 5723 5724 5724 5724 5725 5726 5728 5728 5728 5729 5731 5732 5732 5733 5733 5732 5732 5732 5732 5732 5733 5733 5732 5732 5732 5733 5733 5733 5733 5734 5734 5735 5735 5735 5735 5736 5736 5736 5736 5736 5736 5736 5736 5736 5737 5737 5737 5737 5738 5738 5738 5738 5738 5739 5739 5739 5739 5739 5740 5740 5739 5740 5740 5740 5740 5740 5740 5740 5740 5741 5742 5742 5742 5742 5742 5743 5743 5744
5714 5715 5715 5716 5717 5718 5718 5720 5721 5721 5721 5722 5723 5725 5726 5725 5726 5727 5728 5729 5730 5730 5730 5730 5730 5730 5729 5730 5730 5730 5729 5729 5729 5729 5730 5730 5730 5731 5731 5732 5732 5732 5733 5733 5733 5733 5733 5734 5734 5733 5734 5734 5734 5734 5734 5734 5735 5735 5735 5735 5736 5736 5736 5736 5736 5737 5736 5736 5736 5736 5736 5736 5736 5736 5736 5736 5737 5737 5738 5738 5739 5739 5739 5740 5740
5711 5711 5712 5713 5714 5715 5715 5716 5718 5718 5718 5719 5720 5721 5722 5722 5722 5722 5723 5724 5725 5726 5727 5727 5727 5727 5727 5727 5727 5727 5726 5725 5725 5726 5726 5727 5727 5727 5727 5728 5728 5729 5729 5730 5730 5730 5730 5731 5731 5731 5731 5731 5732 5732 5732 5732 5732 5732 5732 5732 5732 5732 5732 5733 5733 5733 5733 5733 5732 5732 5732 5733 5732 5732 5732 5733 5733 5733 5733 5734 5734 5735 5735 5736 5736
5708 5708 5708 5709 5711 5712 5712 5713 5714 5715 5715 5715 5716 5717 5718 5718 5718 5718 5719 5720 5721 5722 5723 5723 5723 5723 5724 5724 5724 5724 5723 5723 5723 5723 5723 5723 5723 5723 5724 5724 5724 5725 5725 5726 5727 5727 5727 5728 5728 5728 5728 5728 5728 5728 5729 5729 5729 5729 5729 5729 5729 5729 5729 5729 5729 5729 5729 5729 5729 5728 5728 5728 5728 5728 5727 5728 5728 5729 5729 5729 5729 5730 5730 5730 5731
5703 5704 5705 5706 5707 5708 5708 5709 5710 5710 5710 5711 5712 5713 5714 5714 5715 5715 5716 5716 5716 5718 5719 5719 5719 5719 5719 5719 5720 5720 5720 5720 5720 5720 5720 5719 5719 5719 5720 5720 5720 5720 5721 5722 5722 5723 5723 5724 5724 5724 5724 5724 5724 5725 5725 5725 5725 5725 5726 5725 5725 5725 5725 5724 5724 5724 5724 5724 5724 5724 5724 5723 5723 5723 5723 5723 5723 5724 5724 5725 5725 5725 5725 5725 5725
5699 5700 5701 5702 5703 5704 5705 5706 5707 5707 5707 5707 5707 5709 5709 5710 5711 5711 5712 5712 5712 5713 5714 5714 5714 5714 5714 5714 5714 5714 5715 5716 5716 5717 5717 5716 5715 5715 5715 5716 5716 5717 5717 5718 5718 5719 5719 5719 5719 5719 5719 5720 5720 5720 5720 5720 5720 5721 5721 5721 5721 5721 5720 5720 5720 5720 5720 5720 5719 5719 5719 5718 5718 5718 5718 5718 5718 5719 5719 5719 5720 5720 5720 5720 5720
5695 5695 5696 5697 5699 5701 5701 5701 5702 5703 5704 5703 5703 5704 5705 5706 5707 5707 5707 5707 5708 5708 5709 5709 5709 5709 5710 5710 5709 5709 5710 5710 5710 5712 5713 5713 5712 5712 5712 5712 5712 5712 5713 5713 5713 5714 5714 5714 5714 5714 5714 5714 5714 5715 5715 5715 5715 5716 5716 5716 5716 5716 5716 5715 5715 5715 5715 5715 5714 5714 5714 5713 5712 5713 5712 5712 5712 5713 5713 5713 5714 5714 5714 5715 5715
5689 5690 5691 5692 5694 5695 5696 5696 5696 5697 5698 5698 5699 5700 5701 5701 5702 5702 5702 5702 5702 5703 5704 5704 5704 5704 5704 5705 5705 5705 5705 5705 5705 5706 5707 5708 5708 5708 5708 5708 5707 5707 5708 5708 5708 5709 5709 5710 5710 5710 5710 5709 5709 5710 5710 5710 5710 5710 5710 5710 5710 5710 5710 5710 5710 5710 5710 5709 5709 5709 5708 5708 5707 5707 5706 5706 5706 5707 5707 5707 5708 5708 5708 5709 5709
5684 5684 5685 5686 5688 5689 5690 5691 5690 5691 5692 5692 5693 5695 5695 5695 5695 5696 5697 5697 5697 5698 5698 5699 5698 5698 5699 5700 5701 5701 5701 5701 5700 5700 5701 5702 5703 5704 5704 5704 5703 5703 5703 5703 5703 5704 5704 5705 5705 5705 5705 5704 5704 5705 5704 5704 5705 5705 5705 5705 5704 5704 5704 5704 5704 5704 5704 5704 5704 5703 5703 5702 5702 5701 5700 5700 5700 5700 5700 5700 5701 5702 5702 5703 5703
5679 5680 5680 5681 5682 5683 5684 5684 5684 5685 5686 5686 5687 5688 5689 5689 5689 5690 5691 5691 5692 5692 5693 5693 5693 5693 5694 5695 5696 5697 5696 5696 5695 5694 5695 5696 5697 5697 5698 5698 5698 5698 5698 5698 5699 5699 5699 5700 5700 5699 5699 5699 5699 5699 5699 5699 5698 5698 5698 5698 5698 5698 5697 5697 5697 5696 5697 5697 5698 5697 5696 5696 5696 5695 5694 5694 5694 5693 5693 5693 5694 5695 5695 5696 5697
5674 5675 5675 5676 5677 5677 5677 5678 5679 5679 5679 5679 5679 5680 5681 5682 5682 5683 5683 5684 5685 5686 5686 5687 5688 5688 5689 5691 5691 5691 5691 5690 5690 5689 5689 5690 5690 5691 5691 5692 5691 5691 5692 5693 5693 5694 5694 5694 5693 5693 5693 5693 5693 5693 5693 5693 5692 5692 5691 5691 5691 5691 5690 5690 5689 5689 5689 5689 5690 5690 5689 5689 5689 5688 5687 5687 5687 5687 5687 5687 5687 5687 5688 5689 5689
5669 5669 5670 5671 5672 5671 5672 5673 5673 5673 5673 5672 5672 5673 5674 5674 5675 5675 5676 5677 5678 5678 5679 5680 5681 5681 5683 5684 5684 5684 5684 5684 5684 5685 5684 5684 5684 5685 5685 5685 5685 5685 5686 5686 5686 5687 5687 5687 5687 5686 5686 5687 5687 5687 5687 5686 5686 5685 5685 5684 5684 5683 5683 5682 5681 5681 5681 5681 5682 5682 5681 5681 5681 5680 5680 5679 5680 5680 5680 5680 5680 5680 5681 5681 5681
5664 5664 5665 5665 5666 5665 5666 5667 5667 5668 5667 5667 5666 5666 5666 5667 5668 5668 5669 5669 5670 5671 5672 5673 5674 5675 5676 5677 5676 5675 5676 5677 5678 5678 5678 5678 5678 5679 5679 5679 5679 5679 5679 5679 5679 5679 5680 5680 5680 5679 5679 5679 5680 5680 5680 5679 5679 5678 5677 5677 5677 5676 5676 5675 5674 5674 5673 5673 5673 5673 5673 5672 5672 5672 5671 5671 5671 5671 5672 5673 5673 5673 5673 5673 5674
5659 5659 5659 5659 5659 5660 5661 5661 5661 5661 5661 5660 5660 5660 5660 5661 5661 5662 5663 5663 5663 5664 5665 5667 5668 5670 5671 5671 5669 5668 5669 5670 5670 5671 5671 5671 5671 5671 5672 5672 5672 5672 5672 5672 5671 5672 5672 5672 5672 5672 5671 5671 5671 5671 5671 5671 5671 5671 5670 5669 5669 5668 5668 5667 5667 5667 5666 5666 5666 5665 5665 5664 5663 5663 5662 5662 5662 5662 5662 5664 5664 5664 5664 5666 5666
5652 5652 5653 5653 5653 5654 5655 5655 5655 5655 5654 5654 5654 5654 5654 5655 5655 5656 5656 5657 5657 5658 5659 5661 5663 5664 5664 5664 5663 5662 5662 5662 5663 5663 5663 5663 5663 5664 5664 5665 5665 5665 5666 5665 5664 5664 5664 5664 5664 5664 5663 5663 5663 5662 5662 5661 5661 5661 5661 5661 5660 5660 5659 5659 5659 5659 5658 5658 5658 5657 5657 5656 5655 5655 5654 5653 5653 5653 5653 5654 5654 5654 5655 5657 5658
5644 5645 5646 5647 5647 5648 5648 5649 5649 5648 5648 5647 5647 5647 5648 5648 5648 5649 5649 5650 5651 5651 5653 5655 5657 5657 5657 5656 5655 5655 5655 5655 5655 5655 5656 5656 5656 5655 5656 5656 5656 5657 5657 5657 5657 5656 5656 5656 5656 5656 5655 5655 5654 5654 5653 5653 5653 5653 5652 5652 5652 5651 5651 5650 5650 5650 5649 5649 5648 5648 5648 5647 5647 5647 5646 5645 5645 5644 5644 5645 5645 5645 5646 5647 5648
5636 5637 5638 5638 5638 5639 5640 5640 5641 5641 5641 5640 5641 5641 5641 5641 5642 5642 5642 5643 5643 5644 5646 5649 5650 5649 5649 5648 5647 5647 5647 5647 5647 5648 5648 5648 5648 5648 5648 5648 5648 5648 5648 5648 5648 5648 5648 5648 5648 5648 5647 5647 5646 5646 5645 5645 5645 5644 5644 5644 5643 5643 5642 5642 5642 5641 5641 5641 5640 5639 5639 5639 5639 5639 5638 5637 5636 5635 5635 5636 5636 5636 5636 5637 5637
5628 5628 5629 5630 5630 5631 5631 5632 5632 5633 5633 5634 5634 5635 5635 5635 5634 5635 5635 5635 5636 5638 5640 5642 5642 5641 5641 5641 5640 5640 5640 5640 5640 5640 5641 5641 5641 5641 5641 5640 5640 5640 5640 5639 5639 5640 5641 5641 5640 5640 5639 5639 5638 5638 5638 5638 5637 5636 5636 5635 5635 5634 5634 5633 5633 5632 5632 5632 5632 5632 5631 5631 5630 5630 5629 5629 5628 5627 5626 5626 5626 5626 5627 5627 5627
5619 5620 5620 5622 5623 5623 5623 5623 5624 5625 5626 5627 5628 5628 5629 5629 5628 5628 5628 5628 5630 5632 5633 5633 5634 5634 5634 5633 5633 5633 5633 5632 5633 5633 5633 5634 5634 5634 5633 5633 5632 5632 5632 5631 5630 5632 5633 5633 5633 5633 5632 5631 5631 5631 5631 5631 5630 5629 5628 5628 5627 5626 5626 5625 5625 5624 5624 5624 5624 5623 5623 5622 5621 5621 5620 5620 5619 5618 5617 5617 5616 5616 5616 5617 5617
5612 5612 5613 5614 5615 5615 5615 5616 5617 5617 5618 5619 5620 5620 5621 5622 5622 5622 5622 5622 5623 5625 5625 5626 5626 5626 5626 5626 5625 5625 5625 5626 5626 5626 5626 5626 5627 5627 5626 5626 5625 5625 5625 5623 5622 5624 5626 5626 5625 5625 5624 5623 5623 5624 5623 5623 5622 5621 5621 5620 5619 5618 5617 5617 5616 5616 5615 5615 5615 5614 5614 5613 5612 5612 5611 5611 5610 5610 5609 5608 5608 5607 5607 5607 5607
5604 5605 5606 5607 5607 5608 5608 5609 5609 5610 5611 5611 5612 5612 5613 5614 5615 5616 5616 5617 5618 5618 5618 5619 5619 5619 5618 5618 5618 5618 5618 5619 5619 5619 5619 5619 5619 5619 5619 5619 5619 5619 5618 5617 5615 5616 5618 5618 5618 5617 5616 5615 5615 5616 5615 5615 5614 5614 5613 5612 5611 5610 5609 5608 5607 5607 5606 5606 5606 5606 5605 5604 5604 5603 5602 5602 5601 5600 5600 5599 5599 5598 5597 5597 5597
5597 5597 5598 5599 5599 5600 5601 5602 5602 5603 5603 5604 5604 5605 5606 5607 5608 5609 5610 5612 5612 5611 5611 5612 5612 5612 5612 5612 5611 5611 5611 5612 5612 5612 5611 5612 5612 5612 5612 5612 5612 5612 5611 5610 5609 5609 5609 5610 5610 5609 5608 5608 5608 5608 5607 5607 5606 5605 5605 5603 5602 5601 5600 5600 5599 5598 5598 5597 5597 5596 5596 5595 5595 5594 5594 5593 5592 5591 5590 5590 5589 5588 5587 5587 5587
5588 5589 5590 5591 5592 5593 5593 5595 5595 5595 5596 5597 5598 5599 5600 5601 5602 5602 5603 5605 5605 5605 5605 5605 5605 5606 5606 5605 5605 5605 5605 5606 5606 5605 5605 5605 5605 5605 5605 5605 5605 5605 5604 5603 5602 5602 5602 5602 5602 5602 5601 5601 5601 5601 5600 5599 5598 5598 5597 5595 5594 5593 5592 5592 5591 5590 5590 5589 5588 5588 5587 5587 5586 5585 5584 5584 5583 5582 5581 5579 5579 5578 5577 5576 5576
5580 5581 5582 5583 5584 5585 5586 5586 5587 5587 5589 5590 5591 5592 5593 5594 5595 5595 5596 5597 5599 5599 5598 5598 5599 5600 5599 5598 5598 5598 5599 5599 5599 5599 5599 5599 5599 5599 5598 5598 5598 5598 5597 5597 5596 5596 5595 5595 5595 5595 5595 5595 5594 5594 5593 5592 5591 5590 5589 5588 5587 5586 5585 5584 5583 5582 5582 5581 5580 5579 5579 5578 5577 5576 5574 5573 5572 5571 5570 5568 5568 5567 5566 5565 5565
5573 5574 5575 5575 5575 5576 5577 5578 5579 5581 5583 5584 5584 5585 5586 5587 5588 5589 5589 5590 5592 5592 5592 5592 5593 5593 5593 5592 5592 5592 5592 5593 5593 5593 5593 5593 5593 5593 5592 5592 5592 5592 5591 5591 5591 5590 5590 5589 5589 5589 5589 5588 5587 5586 5585 5585 5584 5583 5582 5580 5579 5578 5577 5576 5575 5574 5573 5572 5571 5571 5569 5568 5567 5566 5564 5563 5561 5560 5558 5557 5557 5556 5555 5554 5555
5565 5565 5566 5566 5567 5567 5569 5570 5572 5574 5575 5577 5577 5578 5578 5580 5581 5582 5582 5583 5584 5585 5585 5585 5586 5587 5586 5586 5586 5587 5587 5587 5587 5587 5587 5587 5587 5587 5587 5586 5586 5586 5586 5586 5585 5585 5584 5584 5583 5583 5582 5581 5580 5579 5579 5578 5577 5576 5575 5574 5572 5571 5569 5568 5567 5566 5565 5564 5563 5561 5560 5558 5557 5556 5554 5552 5551 5549 5547 5546 5546 5545 5545 5544 5545
5554 5555 5556 5557 5559 5560 5561 5563 5564 5566 5568 5570 5570 5570 5571 5573 5574 5575 5575 5576 5577 5578 5578 5579 5580 5581 5580 5580 5581 5581 5580 5581 5581 5581 5581 5581 5581 5581 5581 5581 5581 5581 5580 5580 5580 5579 5578 5577 5577 5576 5575 5575 5574 5574 5573 5572 5571 5570 5568 5567 5565 5564 5562 5561 5559 5558 5556 5555 5553 5552 5550 5549 5547 5546 5544 5542 5540 5538 5537 5536 5535 5535 5534 5534 5535
5544 5545 5547 5549 5551 5553 5554 5555 5556 5558 5561 5563 5562 5562 5564 5567 5568 5568 5568 5569 5570 5571 5572 5573 5574 5574 5574 5574 5574 5574 5574 5575 5575 5575 5575 5575 5575 5575 5575 5575 5575 5575 5575 5575 5574 5573 5573 5572 5572 5571 5570 5570 5569 5569 5568 5566 5565 5563 5562 5560 5558 5556 5555 5553 5551 5549 5547 5545 5544 5542 5541 5539 5537 5536 5534 5532 5530 5528 5526 5525 5524 5524 5524 5524 5525
5535 5538 5539 5541 5542 5544 5546 5546 5547 5550 5553 5555 5555 5556 5558 5560 5561 5561 5562 5563 5564 5565 5565 5566 5567 5568 5568 5568 5568 5568 5569 5569 5569 5569 5569 5569 5569 5569 5570 5570 5570 5570 5570 5570 5569 5569 5568 5568 5568 5567 5567 5566 5565 5564 5562 5561 5559 5558 5556 5553 5551 5549 5546 5544 5542 5540 5538 5536 5534 5533 5531 5529 5527 5526 5523 5521 5519 5517 5515 5514 5513 5513 5513 5514 5515
5527 5529 5531 5533 5534 5536 5537 5537 5539 5542 5545 5547 5548 5550 5551 5552 5553 5554 5555 5557 5558 5559 5559 5559 5560 5561 5561 5561 5562 5562 5563 5563 5563 5563 5563 5564 5564 5564 5565 5565 5565 5566 5566 5566 5566 5565 5565 5565 5565 5564 5563 5562 5561 5559 5557 5556 5553 5551 5549 5546 5544 5541 5538 5536 5534 5532 5530 5528 5525 5524 5522 5519 5518 5516 5513 5511 5509 5507 5505 5504 5503 5502 5503 5504 5505
5516 5519 5522 5524 5526 5528 5529 5529 5531 5534 5537 5539 5541 5543 5544 5545 5547 5548 5549 5550 5551 5551 5552 5553 5553 5554 5555 5555 5556 5556 5556 5557 5557 5557 5558 5558 5559 5560 5561 5561 5562 5562 5563 5563 5563 5563 5562 5562 5561 5560 5559 5558 5556 5554 5552 5550 5547 5544 5542 5539 5536 5533 5531 5528 5526 5523 5521 5519 5517 5515 5513 5510 5508 5506 5504 5502 5500 5498 5497 5495 5494 5494 5494 5495 5496
5507 5510 5512 5514 5516 5519 5521 5522 5523 5526 5529 5531 5533 5535 5537 5538 5540 5541 5542 5543 5544 5544 5545 5546 5547 5547 5548 5549 5549 5550 5550 5551 5552 5552 5553 5554 5555 5556 5557 5559 5559 5560 5560 5560 5560 5560 5560 5559 5558 5557 5555 5554 5551 5549 5546 5544 5541 5538 5536 5532 5529 5527 5524 5521 5518 5515 5512 5510 5508 5506 5504 5503 5501 5499 5497 5495 5494 5492 5491 5489 5488 5488 5488 5488 5489
5498 5500 5503 5505 5507 5509 5511 5513 5516 5518 5521 5524 5526 5528 5530 5531 5533 5535 5536 5537 5537 5538 5539 5539 5540 5541 5542 5543 5544 5545 5546 5547 5548 5548 5550 5551 5552 5554 5555 5556 5557 5557 5558 5558 5558 5557 5557 5556 5555 5553 5551 5549 5547 5545 5542 5540 5537 5533 5530 5527 5523 5520 5517 5514 5510 5507 5504 5502 5501 5499 5498 5497 5495 5494 5493 5491 5489 5488 5487 5485 5484 5484 5484 5484 5484
5488 5490 5493 5495 5497 5499 5502 5505 5507 5510 5514 5517 5519 5521 5523 5525 5527 5529 5530 5530 5531 5532 5533 5534 5535 5536 5537 5538 5540 5541 5542 5543 5544 5546 5547 5549 5551 5552 5553 5554 5555 5555 5555 5555 5555 5555 5554 5553 5552 5550 5548 5546 5544 5541 5539 5535 5532 5528 5524 5520 5516 5513 5510 5506 5503 5500 5498 5497 5496 5495 5494 5493 5492 5491 5489 5488 5486 5485 5484 5482 5481 5481 5480 5480 5480
5479 5481 5484 5486 5488 5490 5494 5497 5499 5503 5508 5510 5512 5515 5517 5519 5521 5523 5524 5525 5526 5528 5529 5531 5532 5533 5534 5535 5536 5538 5539 5541 5542 5544 5546 5547 5549 5550 5551 5552 5552 5553 5553 5553 5553 5553 5552 5551 5549 5548 5546 5544 5541 5538 5535 5531 5526 5522 5517 5513 5509 5506 5503 5500 5497 5496 5495 5493 5492 5491 5491 5490 5489 5488 5487 5486 5484 5483 5482 5480 5479 5478 5477 5477 5477
5473 5475 5477 5479 5481 5484 5487 5490 5494 5498 5502 5504 5507 5510 5512 5514 5516 5518 5519 5521 5523 5525 5527 5528 5530 5530 5531 5532 5534 5536 5537 5539 5541 5542 5544 5546 5547 5548 5549 5550 5550 5551 5551 5551 5551 5550 5549 5549 5548 5546 5544 5541 5538 5534 5530 5526 5521 5516 5511 5507 5503 5500 5498 5496 5494 5493 5492 5491 5490 5489 5488 5487 5487 5486 5485 5484 5483 5481 5480 5478 5477 5476 5475 5475 5474
5469 5470 5472 5474 5477 5480 5483 5486 5490 5493 5497 5500 5503 5506 5509 5511 5513 5515 5517 5519 5521 5523 5525 5526 5527 5528 5529 5531 5533 5534 5536 5538 5539 5541 5542 5544 5545 5546 5547 5548 5549 5549 5550 5549 5549 5548 5548 5547 5546 5544 5541 5538 5534 5530 5526 5521 5515 5510 5505 5502 5499 5497 5495 5493 5492 5490 5489 5489 5488 5487 5486 5486 5485 5484 5483 5482 5481 5479 5477 5476 5474 5474 5473 5472 5471
5467 5468 5470 5472 5474 5477 5480 5483 5487 5491 5494 5498 5501 5504 5506 5509 5511 5513 5516 5518 5520 5521 5523 5524 5526 5527 5528 5530 5532 5533 5534 5536 5537 5539 5540 5542 5543 5544 5545 5546 5547 5547 5547 5547 5547 5547 5547 5546 5544 5542 5539 5535 5531 5526 5522 5516 5510 5505 5501 5499 5497 5495 5493 5491 5490 5488 5488 5487 5486 5486 5485 5484 5483 5482 5481 5480 5478 5476 5474 5473 5472 5471 5470 5469 5468
5467 5468 5470 5471 5474 5476 5479 5483 5487 5491 5494 5497 5500 5503 5505 5508 5510 5512 5514 5517 5519 5520 5522 5523 5524 5526 5527 5529 5530 5531 5533 5534 5536 5537 5539 5541 5542 5543 5543 5544 5545 5546 5546 5546 5546 5546 5545 5543 5541 5539 5536 5532 5528 5523 5518 5512 5507 5502 5498 5496 5494 5493 5491 5490 5488 5487 5487 5486 5485 5484 5484 5483 5481 5480 5479 5477 5475 5473 5472 5470 5469 5468 5467 5466 5465
5469 5470 5472 5474 5476 5479 5482 5485 5488 5492 5495 5497 5500 5502 5504 5507 5509 5511 5514 5516 5518 5519 5521 5522 5523 5525 5526 5527 5528 5530 5531 5533 5535 5536 5538 5539 5540 5541 5542 5543 5543 5544 5544 5545 5545 5544 5543 5541 5539 5537 5534 5530 5525 5520 5515 5510 5504 5499 5496 5494 5492 5491 5489 5488 5487 5487 5486 5485 5484 5483 5482 5481 5479 5478 5476 5475 5473 5471 5469 5468 5466 5465 5464 5464 5463
5472 5474 5475 5477 5479 5482 5485 5487 5490 5493 5495 5498 5500 5502 5504 5506 5508 5511 5513 5515 5517 5518 5520 5521 5522 5523 5524 5525 5527 5529 5530 5532 5534 5536 5537 5538 5539 5540 5541 5541 5542 5542 5543 5543 5542 5541 5540 5539 5537 5534 5531 5528 5523 5518 5513 5508 5503 5498 5494 5492 5491 5489 5488 5487 5486 5485 5485 5484 5483 5482 5481 5479 5478 5476 5475 5473 5471 5470 5468 5466 5464 5463 5462 5462 5461
5474 5476 5478 5479 5481 5483 5486 5488 5491 5493 5496 5498 5500 5502 5504 5506 5508 5510 5512 5514 5516 5517 5518 5520 5521 5522 5523 5524 5526 5528 5530 5532 5534 5535 5536 5537 5538 5539 5539 5540 5540 5541 5541 5541 5540 5539 5538 5536 5535 5532 5529 5526 5521 5516 5512 5507 5501 5497 5494 5491 5490 5488 5486 5486 5485 5484 5483 5482 5482 5481 5479 5478 5477 5475 5474 5472 5470 5469 5467 5465 5463 5462 5461 5460 5460
5477 5478 5480 5481 5483 5485 5487 5490 5492 5495 5497 5499 5501 5503 5504 5506 5508 5510 5511 5513 5515 5516 5517 5518 5519 5521 5522 5524 5526 5528 5530 5531 5533 5534 5535 5536 5537 5537 5538 5538 5539 5539 5539 5539 5538 5537 5536 5534 5532 5530 5527 5524 5519 5515 5510 5505 5501 5497 5494 5491 5489 5487 5486 5485 5484 5483 5482 5482 5481 5480 5479 5478 5476 5475 5473 5472 5470 5469 5467 5465 5463 5462 5461 5460 5460
5480 5481 5483 5484 5486 5488 5490 5492 5494 5496 5498 5499 5501 5503 5504 5506 5508 5509 5511 5513 5514 5515 5516 5518 5519 5521 5523 5524 5526 5528 5529 5531 5532 5533 5533 5534 5535 5535 5536 5536 5537 5537 5537 5537 5536 5535 5534 5532 5530 5528 5525 5522 5519 5514 5509 5505 5501 5497 5494 5491 5489 5487 5486 5485 5484 5483 5482 5481 5481 5480 5479 5478 5476 5475 5473 5472 5471 5469 5468 5466 5464 5463 5462 5461 5460
5483 5485 5486 5487 5488 5490 5491 5493 5495 5496 5498 5500 5501 5503 5505 5506 5508 5509 5510 5512 5513 5514 5516 5518 5519 5521 5523 5524 5526 5527 5529 5530 5531 5531 5532 5533 5533 5534 5534 5535 5535 5535 5535 5535 5534 5533 5532 5530 5529 5527 5524 5521 5518 5514 5510 5505 5502 5498 5495 5491 5489 5487 5486 5485 5484 5483 5482 5481 5480 5479 5479 5478 5476 5475 5474 5473 5472 5470 5469 5467 5466 5465 5463 5462 5462
5486 5487 5488 5489 5491 5492 5493 5495 5496 5497 5499 5500 5502 5503 5505 5506 5507 5509 5510 5511 5513 5514 5516 5518 5519 5521 5523 5524 5525 5527 5528 5529 5529 5530 5531 5531 5532 5532 5533 5533 5533 5533 5533 5533 5532 5531 5530 5529 5527 5525 5523 5521 5518 5514 5510 5507 5503 5499 5495 5492 5490 5487 5486 5484 5483 5483 5482 5481 5480 5479 5479 5478 5477 5475 5474 5473 5472 5471 5470 5469 5468 5467 5466 5465 5464
5488 5489 5490 5491 5492 5493 5495 5496 5497 5498 5499 5501 5502 5503 5504 5506 5507 5508 5510 5511 5513 5514 5516 5518 5519 5521 5522 5524 5525 5526 5527 5528 5528 5529 5529 5530 5530 5531 5531 5531 5532 5532 5531 5531 5530 5529 5528 5527 5526 5524 5522 5520 5517 5514 5511 5508 5505 5501 5497 5494 5491 5488 5486 5484 5483 5482 5482 5481 5480 5479 5479 5478 5477 5475 5474 5474 5473 5472 5471 5470 5469 5469 5468 5467 5466
5490 5491 5492 5492 5493 5494 5495 5497 5498 5499 5500 5501 5502 5503 5504 5506 5507 5508 5509 5511 5513 5514 5516 5518 5519 5521 5522 5523 5524 5525 5526 5526 5527 5528 5528 5529 5529 5529 5529 5530 5530 5530 5529 5529 5528 5527 5526 5525 5524 5522 5521 5519 5517 5514 5512 5510 5506 5503 5499 5496 5492 5489 5486 5484 5483 5482 5481 5480 5480 5479 5479 5478 5477 5476 5475 5474 5474 5473 5472 5471 5471 5470 5469 5469 5468
5492 5492 5493 5494 5494 5495 5496 5497 5498 5499 5500 5501 5502 5503 5504 5506 5507 5508 5510 5511 5513 5515 5516 5518 5519 5520 5521 5522 5523 5524 5524 5525 5525 5526 5526 5527 5527 5527 5528 5528 5528 5528 5527 5527 5526 5526 5525 5524 5522 5521 5519 5518 5516 5514 5512 5510 5507 5504 5501 5497 5493 5490 5487 5484 5483 5481 5480 5480 5479 5479 5479 5478 5477 5476 5476 5475 5475 5474 5474 5473 5472 5472 5471 5470 5470